| time (UTC) | temp F | wind direction | speed MPH | gust MPH | rain 1hr in | rain 24hr in | rain mn in | humidity % | barometer mb |
| 20260905031519 | 77 | 0.0 | 0.0 | 0.00 | 0.00 | 0.00 | 95 | 1015.1 | |
| 20260905030520 | 77 | 0.0 | 0.0 | 0.00 | 0.00 | 0.00 | 95 | 1015.0 | |
| 20260905025519 | 77 | 0.0 | 0.0 | 0.00 | 0.00 | 0.00 | 94 | 1015.1 | |
| 20260905024519 | 78 | 0.0 | 0.0 | 0.00 | 0.00 | 0.00 | 94 | 1015.1 | |
| 20260905023519 | 78 | 0.0 | 0.0 | 0.00 | 0.00 | 0.00 | 94 | 1015.0 | |
| 20260905021519 | 78 | 0.0 | 0.0 | 0.00 | 0.00 | 0.00 | 94 | 1014.8 | |
| 20260905020600 | 78 | 0.0 | 0.0 | 0.00 | 0.00 | 0.00 | 93 | 1014.7 | |
| 20260905015519 | 79 | 0.0 | 0.0 | 0.00 | 0.00 | 0.00 | 93 | 1014.7 | |
| 20260905014600 | 79 | 0.0 | 0.0 | 0.00 | 0.00 | 0.00 | 92 | 1014.5 | |
| 20260905013520 | 79 | 0.0 | 0.0 | 0.00 | 0.00 | 0.00 | 92 | 1014.5 | |
| 20260905012519 | 79 | 0.0 | 0.0 | 0.00 | 0.00 | 0.00 | 92 | 1014.3 | |
| 20260905011519 | 80 | 0.0 | 0.0 | 0.00 | 0.00 | 0.00 | 91 | 1014.1 | |
| 20260905010519 | 80 | 0.0 | 0.0 | 0.00 | 0.00 | 0.00 | 90 | 1014.1 | |
| 20260905005519 | 81 | 0.0 | 0.0 | 0.00 | 0.00 | 0.00 | 90 | 1013.9 | |
| 20260905004520 | 81 | 0.0 | 0.0 | 0.00 | 0.00 | 0.00 | 89 | 1013.8 | |
| 20260905003519 | 82 | 0.0 | 0.0 | 0.00 | 0.00 | 0.00 | 88 | 1013.7 | |
| 20260905002519 | 82 | 0.0 | 0.0 | 0.00 | 0.00 | 0.00 | 86 | 1013.7 | |
| 20260905001519 | 83 | 0.0 | 0.0 | 0.00 | 0.00 | 0.00 | 85 | 1013.5 | |
| 20260905000520 | 84 | 0.0 | 0.0 | 0.00 | 0.00 | 0.00 | 84 | 1013.6 | |
| 20260904235519 | 85 | 0.0 | 0.0 | 0.00 | 0.00 | 0.00 | 82 | 1013.6 | |
| 20260904234519 | 87 | 0.0 | 0.0 | 0.00 | 0.00 | 0.00 | 79 | 1013.6 | |
| 20260904233519 | 88 | 0.0 | 0.0 | 0.00 | 0.00 | 0.00 | 76 | 1013.6 | |
| 20260904232519 | 89 | 0.0 | 0.0 | 0.00 | 0.00 | 0.00 | 75 | 1013.6 | |
| 20260904231519 | 90 | 0.0 | 0.0 | 0.00 | 0.00 | 0.00 | 73 | 1013.8 | |
| 20260904230639 | 92 | 0.0 | 0.0 | 0.00 | 0.00 | 0.00 | 70 | 1013.9 | |
| 20260904225520 | 94 | 0.0 | 0.0 | 0.00 | 0.00 | 0.00 | 65 | 1014.1 | |
| 20260904224519 | 97 | 0.0 | 0.0 | 0.00 | 0.00 | 0.00 | 60 | 1014.3 | |
| 20260904223519 | 98 | 0.0 | 0.0 | 0.00 | 0.00 | 0.00 | 55 | 1014.4 | |
| 20260904222519 | 99 | 0.0 | 0.0 | 0.00 | 0.00 | 0.00 | 52 | 1014.5 | |
| 20260904221520 | 99 | 0.0 | 2.0 | 0.00 | 0.00 | 0.00 | 50 | 1014.6 | |
| 20260904220519 | 99 | 0.0 | 1.0 | 0.00 | 0.00 | 0.00 | 52 | 1014.6 | |
| 20260904215519 | 99 | 0.0 | 1.0 | 0.00 | 0.00 | 0.00 | 52 | 1014.6 | |
| 20260904214520 | 98 | 0.0 | 2.0 | 0.00 | 0.00 | 0.00 | 50 | 1014.5 | |
| 20260904213519 | 99 | 0.0 | 3.0 | 0.00 | 0.00 | 0.00 | 48 | 1014.6 | |
| 20260904212519 | 99 | 0.0 | 2.0 | 0.00 | 0.00 | 0.00 | 49 | 1014.6 | |
| 20260904211539 | 99 | 0.0 | 2.0 | 0.00 | 0.00 | 0.00 | 51 | 1014.5 | |
| 20260904210519 | 98 | 0.0 | 1.0 | 0.00 | 0.00 | 0.00 | 52 | 1014.6 | |
| 20260904205600 | 98 | 0.0 | 3.0 | 0.00 | 0.00 | 0.00 | 49 | 1014.6 | |
| 20260904204519 | 98 | 0.0 | 2.0 | 0.00 | 0.00 | 0.00 | 50 | 1014.6 | |
| 20260904203520 | 98 | 338 | 1.0 | 3.0 | 0.00 | 0.00 | 0.00 | 50 | 1014.7 |
| 20260904202520 | 98 | 0.0 | 2.0 | 0.00 | 0.00 | 0.00 | 49 | 1015.0 | |
| 20260904201519 | 98 | 0.0 | 3.0 | 0.00 | 0.00 | 0.00 | 51 | 1015.1 | |
| 20260904200519 | 98 | 0.0 | 3.0 | 0.00 | 0.00 | 0.00 | 49 | 1015.3 | |
| 20260904195519 | 98 | 0.0 | 3.0 | 0.00 | 0.00 | 0.00 | 49 | 1015.4 | |
| 20260904194519 | 98 | 0.0 | 2.0 | 0.00 | 0.00 | 0.00 | 53 | 1015.5 | |
| 20260904193520 | 98 | 0.0 | 2.0 | 0.00 | 0.00 | 0.00 | 52 | 1015.8 | |
| 20260904192519 | 98 | 203 | 1.0 | 3.0 | 0.00 | 0.00 | 0.00 | 51 | 1015.8 |
| 20260904191520 | 97 | 0.0 | 0.0 | 0.00 | 0.00 | 0.00 | 56 | 1016.0 | |
| 20260904190519 | 96 | 315 | 1.0 | 3.0 | 0.00 | 0.00 | 0.00 | 53 | 1016.1 |
| 20260904185519 | 97 | 315 | 1.0 | 4.0 | 0.00 | 0.00 | 0.00 | 52 | 1016.1 |
| 20260904184519 | 97 | 0.0 | 3.0 | 0.00 | 0.00 | 0.00 | 54 | 1016.3 | |
| 20260904183520 | 97 | 315 | 1.0 | 2.0 | 0.00 | 0.00 | 0.00 | 52 | 1016.4 |
| 20260904182519 | 97 | 0.0 | 3.0 | 0.00 | 0.00 | 0.00 | 55 | 1016.5 | |
| 20260904181519 | 97 | 0.0 | 4.0 | 0.00 | 0.00 | 0.00 | 53 | 1016.7 | |
| 20260904180519 | 97 | 0.0 | 0.0 | 0.00 | 0.00 | 0.00 | 53 | 1016.8 | |
| 20260904175519 | 97 | 0.0 | 0.0 | 0.00 | 0.00 | 0.00 | 55 | 1016.9 | |
| 20260904174520 | 96 | 0.0 | 0.0 | 0.00 | 0.00 | 0.00 | 53 | 1017.0 | |
| 20260904173520 | 96 | 0.0 | 0.0 | 0.00 | 0.00 | 0.00 | 55 | 1017.0 | |
| 20260904172519 | 95 | 0.0 | 0.0 | 0.00 | 0.00 | 0.00 | 53 | 1017.1 | |
| 20260904171519 | 95 | 0.0 | 0.0 | 0.00 | 0.00 | 0.00 | 54 | 1017.2 | |
| 20260904170519 | 95 | 0.0 | 0.0 | 0.00 | 0.00 | 0.00 | 56 | 1017.2 | |
| 20260904165520 | 95 | 0.0 | 0.0 | 0.00 | 0.00 | 0.00 | 57 | 1017.3 | |
| 20260904164519 | 95 | 0.0 | 0.0 | 0.00 | 0.00 | 0.00 | 59 | 1017.4 | |
| 20260904163519 | 94 | 0.0 | 0.0 | 0.00 | 0.00 | 0.00 | 59 | 1017.3 | |
| 20260904162519 | 94 | 0.0 | 0.0 | 0.00 | 0.00 | 0.00 | 58 | 1017.3 | |
| 20260904161519 | 94 | 0.0 | 0.0 | 0.00 | 0.00 | 0.00 | 60 | 1017.3 | |
| 20260904160520 | 93 | 0.0 | 0.0 | 0.00 | 0.00 | 0.00 | 64 | 1017.4 | |
| 20260904155519 | 93 | 0.0 | 0.0 | 0.00 | 0.00 | 0.00 | 61 | 1017.4 | |
| 20260904154519 | 93 | 0.0 | 0.0 | 0.00 | 0.00 | 0.00 | 62 | 1017.4 | |
| 20260904153600 | 93 | 0.0 | 0.0 | 0.00 | 0.00 | 0.00 | 63 | 1017.4 | |
| 20260904152519 | 92 | 0.0 | 0.0 | 0.00 | 0.00 | 0.00 | 66 | 1017.3 | |
| 20260904151520 | 91 | 0.0 | 0.0 | 0.00 | 0.00 | 0.00 | 66 | 1017.3 | |
| 20260904150519 | 90 | 0.0 | 0.0 | 0.00 | 0.00 | 0.00 | 71 | 1017.2 | |
| 20260904145520 | 89 | 0.0 | 0.0 | 0.00 | 0.00 | 0.00 | 73 | 1017.2 | |
| 20260904144519 | 88 | 0.0 | 0.0 | 0.00 | 0.00 | 0.00 | 74 | 1017.2 | |
| 20260904143520 | 87 | 0.0 | 0.0 | 0.00 | 0.00 | 0.00 | 77 | 1017.2 | |
| 20260904142519 | 85 | 0.0 | 0.0 | 0.00 | 0.00 | 0.00 | 79 | 1017.2 | |
| 20260904141519 | 84 | 0.0 | 0.0 | 0.00 | 0.00 | 0.00 | 82 | 1017.1 | |
| 20260904140519 | 83 | 0.0 | 0.0 | 0.00 | 0.00 | 0.00 | 84 | 1017.1 | |
| 20260904135519 | 81 | 0.0 | 0.0 | 0.00 | 0.00 | 0.00 | 88 | 1017.0 | |
| 20260904134519 | 80 | 0.0 | 0.0 | 0.00 | 0.00 | 0.00 | 92 | 1016.9 | |
| 20260904133519 | 78 | 0.0 | 0.0 | 0.00 | 0.00 | 0.00 | 97 | 1016.9 | |
| 20260904132559 | 77 | 0.0 | 0.0 | 0.00 | 0.00 | 0.00 | 99 | 1016.9 | |
| 20260904131519 | 77 | 0.0 | 0.0 | 0.00 | 0.00 | 0.00 | 100 | 1016.9 | |
| 20260904130520 | 76 | 0.0 | 0.0 | 0.00 | 0.00 | 0.00 | 100 | 1016.9 | |
| 20260904125559 | 75 | 0.0 | 0.0 | 0.00 | 0.00 | 0.00 | 100 | 1016.8 | |
| 20260904124519 | 75 | 0.0 | 0.0 | 0.00 | 0.00 | 0.00 | 100 | 1016.9 | |
| 20260904123559 | 74 | 0.0 | 0.0 | 0.00 | 0.00 | 0.00 | 99 | 1016.7 | |
| 20260904122520 | 73 | 0.0 | 0.0 | 0.00 | 0.00 | 0.00 | 99 | 1016.6 | |
| 20260904121519 | 73 | 0.0 | 0.0 | 0.00 | 0.00 | 0.00 | 99 | 1016.4 | |
| 20260904120519 | 72 | 0.0 | 0.0 | 0.00 | 0.00 | 0.00 | 99 | 1016.4 | |
| 20260904115520 | 72 | 0.0 | 0.0 | 0.00 | 0.00 | 0.00 | 99 | 1016.3 | |
| 20260904114520 | 72 | 0.0 | 0.0 | 0.00 | 0.00 | 0.00 | 99 | 1016.3 | |
| 20260904113559 | 72 | 0.0 | 0.0 | 0.00 | 0.00 | 0.00 | 99 | 1016.2 | |
| 20260904112519 | 72 | 0.0 | 0.0 | 0.00 | 0.00 | 0.00 | 99 | 1016.3 | |
| 20260904111520 | 72 | 0.0 | 0.0 | 0.00 | 0.00 | 0.00 | 99 | 1016.2 | |
| 20260904110520 | 72 | 0.0 | 0.0 | 0.00 | 0.00 | 0.00 | 99 | 1016.3 | |
| 20260904105519 | 72 | 0.0 | 0.0 | 0.00 | 0.00 | 0.00 | 99 | 1016.4 | |
| 20260904103600 | 72 | 0.0 | 0.0 | 0.00 | 0.00 | 0.00 | 99 | 1016.3 | |
| 20260904102519 | 72 | 0.0 | 0.0 | 0.00 | 0.00 | 0.00 | 99 | 1016.3 | |
| 20260904101519 | 72 | 0.0 | 0.0 | 0.00 | 0.00 | 0.00 | 99 | 1016.2 | |
| 20260904100519 | 72 | 0.0 | 0.0 | 0.00 | 0.00 | 0.00 | 99 | 1016.2 | |
| 20260904094519 | 72 | 0.0 | 0.0 | 0.00 | 0.00 | 0.00 | 99 | 1016.1 | |
| 20260904093519 | 72 | 0.0 | 0.0 | 0.00 | 0.00 | 0.00 | 98 | 1016.1 | |
| 20260904092520 | 72 | 0.0 | 0.0 | 0.00 | 0.00 | 0.00 | 99 | 1016.1 | |
| 20260904091559 | 72 | 0.0 | 0.0 | 0.00 | 0.00 | 0.00 | 98 | 1016.1 | |
| 20260904090519 | 72 | 0.0 | 0.0 | 0.00 | 0.00 | 0.00 | 98 | 1016.1 | |
| 20260904085600 | 72 | 0.0 | 0.0 | 0.00 | 0.00 | 0.00 | 98 | 1016.0 | |
| 20260904084520 | 72 | 0.0 | 0.0 | 0.00 | 0.00 | 0.00 | 98 | 1016.0 | |
| 20260904083520 | 72 | 0.0 | 0.0 | 0.00 | 0.00 | 0.00 | 98 | 1016.0 | |
| 20260904082519 | 72 | 0.0 | 0.0 | 0.00 | 0.00 | 0.00 | 98 | 1016.1 | |
| 20260904081519 | 73 | 0.0 | 0.0 | 0.00 | 0.00 | 0.00 | 98 | 1016.0 | |
| 20260904080520 | 73 | 0.0 | 0.0 | 0.00 | 0.00 | 0.00 | 98 | 1016.0 | |
| 20260904075519 | 73 | 0.0 | 0.0 | 0.00 | 0.00 | 0.00 | 98 | 1016.0 | |
| 20260904074519 | 73 | 0.0 | 0.0 | 0.00 | 0.00 | 0.00 | 98 | 1015.9 | |
| 20260904073520 | 73 | 0.0 | 0.0 | 0.00 | 0.00 | 0.00 | 98 | 1015.9 | |
| 20260904072519 | 73 | 0.0 | 0.0 | 0.00 | 0.00 | 0.00 | 98 | 1015.9 | |
| 20260904071519 | 73 | 0.0 | 0.0 | 0.00 | 0.00 | 0.00 | 98 | 1016.0 | |
| 20260904070520 | 73 | 0.0 | 0.0 | 0.00 | 0.00 | 0.00 | 98 | 1016.0 | |
| 20260904065519 | 73 | 0.0 | 0.0 | 0.00 | 0.00 | 0.00 | 98 | 1016.0 | |
| 20260904064559 | 73 | 0.0 | 0.0 | 0.00 | 0.00 | 0.00 | 98 | 1016.1 | |
| 20260904063519 | 73 | 0.0 | 0.0 | 0.00 | 0.00 | 0.00 | 98 | 1016.0 | |
| 20260904062600 | 74 | 0.0 | 0.0 | 0.00 | 0.00 | 0.00 | 98 | 1016.2 | |
| 20260904061519 | 74 | 0.0 | 0.0 | 0.00 | 0.00 | 0.00 | 97 | 1016.2 | |
| 20260904060520 | 74 | 0.0 | 0.0 | 0.00 | 0.00 | 0.00 | 97 | 1016.4 | |
| 20260904055520 | 74 | 0.0 | 0.0 | 0.00 | 0.00 | 0.00 | 97 | 1016.4 | |
| 20260904054519 | 74 | 0.0 | 0.0 | 0.00 | 0.00 | 0.00 | 97 | 1016.5 | |
| 20260904053519 | 74 | 0.0 | 0.0 | 0.00 | 0.00 | 0.00 | 97 | 1016.4 | |
| 20260904052519 | 74 | 0.0 | 0.0 | 0.00 | 0.00 | 0.00 | 97 | 1016.5 | |
| 20260904051519 | 74 | 0.0 | 0.0 | 0.00 | 0.00 | 0.00 | 97 | 1016.5 | |
| 20260904050519 | 74 | 0.0 | 0.0 | 0.00 | 0.00 | 0.00 | 97 | 1016.5 | |
| 20260904045519 | 74 | 0.0 | 0.0 | 0.00 | 0.00 | 0.00 | 97 | 1016.5 | |
| 20260904044519 | 75 | 0.0 | 0.0 | 0.00 | 0.00 | 0.00 | 97 | 1016.5 | |
| 20260904043640 | 75 | 0.0 | 0.0 | 0.00 | 0.00 | 0.00 | 97 | 1016.4 | |
| 20260904042519 | 75 | 0.0 | 0.0 | 0.00 | 0.00 | 0.00 | 97 | 1016.4 | |
| 20260904041519 | 75 | 0.0 | 0.0 | 0.00 | 0.00 | 0.00 | 96 | 1016.3 | |
| 20260904040520 | 75 | 0.0 | 0.0 | 0.00 | 0.00 | 0.00 | 96 | 1016.2 | |
| 20260904035600 | 75 | 0.0 | 0.0 | 0.00 | 0.00 | 0.00 | 96 | 1016.3 | |
| 20260904034559 | 75 | 0.0 | 0.0 | 0.00 | 0.00 | 0.00 | 96 | 1016.4 | |
| 20260904033520 | 75 | 0.0 | 0.0 | 0.00 | 0.00 | 0.00 | 96 | 1016.5 | |
| 20260904032519 | 76 | 0.0 | 0.0 | 0.00 | 0.00 | 0.00 | 95 | 1016.7 |